W4TJP Weather Reports


time (UTC)temp
C
wind
direction
speed
KPH
gust
KPH
rain 1hr
cm
rain 24hr
cm
rain mn
cm
humidity
%
barometer
mb
20260503231458 14 160 0.0 1.6 0.00 0.00 0.00 50 1016.1
20260503230954 14 176 0.0 0.0 0.00 0.00 0.00 52 1016.2
20260503230451 14 164 1.6 1.6 0.00 0.00 0.00 51 1016.2
20260503225948 14 154 1.6 1.6 0.00 0.00 0.00 50 1016.4
20260503225445 15 142 0.0 0.0 0.00 0.00 0.00 52 1016.5
20260503224940 15 176 0.0 0.0 0.00 0.00 0.00 53 1016.4
20260503224438 15 147 0.0 0.0 0.00 0.00 0.00 49 1016.8
20260503223935 15 151 0.0 0.0 0.00 0.00 0.00 50 1016.6
20260503223433 15 176 0.0 0.0 0.00 0.00 0.00 47 1016.6
20260503222928 15 176 0.0 0.0 0.00 0.00 0.00 52 1016.9
20260503222427 15 176 0.0 0.0 0.00 0.00 0.00 54 1016.8
20260503221925 15 176 0.0 0.0 0.00 0.00 0.00 50 1017.0
20260503221423 15 176 1.6 3.2 0.00 0.00 0.00 47 1016.9
20260503220920 15 137 0.0 0.0 0.00 0.00 0.00 46 1017.4
20260503220416 15 176 0.0 0.0 0.00 0.00 0.00 46 1017.2
20260503215913 16 176 0.0 0.0 0.00 0.00 0.00 44 1017.3
20260503215410 16 176 1.6 1.6 0.00 0.00 0.00 43 1017.3
20260503214908 16 178 0.0 0.0 0.00 0.00 0.00 43 1017.3
20260503214405 16 178 0.0 0.0 0.00 0.00 0.00 43 1017.5
20260503213902 17 177 3.2 3.2 0.00 0.00 0.00 40 1017.4
20260503213400 17 180 0.0 0.0 0.00 0.00 0.00 40 1017.4
20260503212856 18 138 0.0 1.6 0.00 0.00 0.00 41 1017.4
20260503212354 17 181 0.0 1.6 0.00 0.00 0.00 40 1017.7
20260503211851 18 180 0.0 0.0 0.00 0.00 0.00 39 1017.7
20260503211348 17 181 0.0 0.0 0.00 0.00 0.00 45 1017.8
20260503210843 17 180 3.2 3.2 0.00 0.00 0.00 40 1017.8
20260503210341 18 198 6.4 9.7 0.00 0.00 0.00 40 1017.8
20260503205835 18 177 4.8 4.8 0.00 0.00 0.00 39 1017.7
20260503205332 18 179 0.0 0.0 0.00 0.00 0.00 46 1017.7
20260503204829 18 180 0.0 1.6 0.00 0.00 0.00 41 1017.8
20260503204327 18 234 0.0 1.6 0.00 0.00 0.00 41 1017.9
20260503203823 18 213 0.0 1.6 0.00 0.00 0.00 42 1017.9
20260503203321 18 154 0.0 0.0 0.00 0.00 0.00 44 1017.9
20260503202818 18 178 0.0 1.6 0.00 0.00 0.00 44 1017.9
20260503202316 17 226 3.2 3.2 0.00 0.00 0.00 43 1018.1
20260503201814 17 178 1.6 1.6 0.00 0.00 0.00 43 1018.1
20260503201310 18 123 3.2 3.2 0.00 0.00 0.00 42 1018.4
20260503200808 18 178 0.0 1.6 0.00 0.00 0.00 45 1018.2
20260503200303 18 179 3.2 3.2 0.00 0.00 0.00 43 1018.4
20260503195801 18 159 0.0 0.0 0.00 0.00 0.00 43 1018.2
20260503195257 18 180 1.6 1.6 0.00 0.00 0.00 46 1018.5
20260503194755 18 178 1.6 1.6 0.00 0.00 0.00 47 1018.5
20260503194250 18 166 0.0 0.0 0.00 0.00 0.00 48 1018.5
20260503193747 18 181 0.0 1.6 0.00 0.00 0.00 48 1018.6
20260503193243 17 173 1.6 1.6 0.00 0.00 0.00 50 1018.4
20260503192739 17 171 0.0 0.0 0.00 0.00 0.00 49 1018.7
20260503192234 17 123 1.6 1.6 0.00 0.00 0.00 49 1018.6
20260503191731 17 181 1.6 3.2 0.00 0.00 0.00 48 1018.8
20260503191228 17 225 1.6 1.6 0.00 0.00 0.00 50 1018.6
20260503190725 17 131 1.6 1.6 0.00 0.00 0.00 47 1018.8
20260503190222 17 180 4.8 8.0 0.00 0.00 0.00 47 1018.9
20260503185719 17 125 4.8 4.8 0.00 0.00 0.00 45 1019.3
20260503185214 17 179 4.8 8.0 0.00 0.00 0.00 45 1019.2
20260503184709 17 141 3.2 4.8 0.00 0.00 0.00 45 1018.9
20260503184206 17 177 1.6 1.6 0.00 0.00 0.00 45 1019.2
20260503183702 17 171 0.0 0.0 0.00 0.00 0.00 44 1019.5
20260503183200 17 139 0.0 0.0 0.00 0.00 0.00 44 1019.3
20260503182658 16 140 3.2 3.2 0.00 0.00 0.00 44 1019.5
20260503182156 16 177 1.6 3.2 0.00 0.00 0.00 44 1019.5
20260503181652 16 143 1.6 3.2 0.00 0.00 0.00 45 1019.5
20260503181149 17 136 3.2 3.2 0.00 0.00 0.00 45 1019.4
20260503180646 16 176 1.6 1.6 0.00 0.00 0.00 47 1019.7
20260503180144 17 177 0.0 1.6 0.00 0.00 0.00 47 1019.5
20260503175641 17 175 0.0 1.6 0.00 0.00 0.00 46 1019.8
20260503175138 16 107 4.8 8.0 0.00 0.00 0.00 46 1019.9
20260503174634 16 217 0.0 1.6 0.00 0.00 0.00 46 1019.8
20260503174132 16 107 1.6 3.2 0.00 0.00 0.00 47 1020.1
20260503173626 16 181 0.0 1.6 0.00 0.00 0.00 48 1019.8
20260503173123 16 178 0.0 1.6 0.00 0.00 0.00 46 1019.9
20260503172620 15 174 0.0 0.0 0.00 0.00 0.00 54 1019.9
20260503172118 15 137 0.0 1.6 0.00 0.00 0.00 45 1019.8
20260503171614 15 242 3.2 3.2 0.00 0.00 0.00 51 1020.0
20260503171111 15 107 3.2 3.2 0.00 0.00 0.00 53 1020.2
20260503170609 15 182 0.0 0.0 0.00 0.00 0.00 50 1020.4
20260503170105 15 123 1.6 3.2 0.00 0.00 0.00 54 1020.4
20260503151000 12 177 0.0 1.6 0.00 0.00 0.00 57 1021.3
20260503150456 12 176 0.0 0.0 0.00 0.00 0.00 60 1021.1
20260503131350 8 132 0.0 0.0 0.00 0.00 0.00 98 1020.8
20260503130847 7 161 0.0 0.0 0.00 0.00 0.00 99 1020.6
20260503130344 6 173 0.0 0.0 0.00 0.00 0.00 99 1020.9
20260503110738 2 175 0.0 0.0 0.00 0.00 0.00 99 1019.8
20260503110235 3 175 0.0 0.0 0.00 0.00 0.00 99 1019.8
20260503100201 3 175 0.0 1.6 0.00 0.00 0.00 99 1019.0
20260503090126 3 175 0.0 0.0 0.00 0.00 0.00 99 1019.0
20260503081602 4 175 0.0 0.0 0.00 0.00 0.00 99 1018.9
20260503081059 4 175 0.0 0.0 0.00 0.00 0.00 99 1019.0
20260503080554 4 175 0.0 0.0 0.00 0.00 0.00 99 1018.6
20260503072529 3 175 0.0 0.0 0.00 0.00 0.00 99 1018.5
20260503072026 3 175 0.0 0.0 0.00 0.00 0.00 99 1018.6
20260503071522 3 175 0.0 0.0 0.00 0.00 0.00 99 1018.5
20260503071019 3 175 0.0 0.0 0.00 0.00 0.00 99 1018.5
20260503070516 3 175 0.0 0.0 0.00 0.00 0.00 99 1018.3
20260503054939 3 176 0.0 0.0 0.00 0.00 0.00 99 1018.2
20260503054436 3 176 0.0 0.0 0.00 0.00 0.00 99 1018.6
20260503053934 3 176 0.0 0.0 0.00 0.00 0.00 99 1018.4
20260503053431 3 176 0.0 0.0 0.00 0.00 0.00 99 1018.4
20260503052927 3 176 0.0 0.0 0.00 0.00 0.00 99 1018.2
20260503052425 3 176 0.0 0.0 0.00 0.00 0.00 99 1018.5
20260503051921 3 176 0.0 0.0 0.00 0.00 0.00 99 1018.3
20260503051417 3 176 0.0 0.0 0.00 0.00 0.00 99 1018.4
20260503050915 3 176 0.0 0.0 0.00 0.00 0.00 99 1018.4
20260503050410 4 176 0.0 0.0 0.00 0.00 0.00 99 1018.2
20260503045908 4 176 0.0 0.0 0.00 0.10 0.10 99 1018.1
20260503045405 4 176 0.0 0.0 0.00 0.10 0.10 99 1018.2
20260503044902 4 176 0.0 0.0 0.00 0.10 0.10 99 1017.9
20260503044359 4 176 0.0 0.0 0.00 0.10 0.10 99 1018.0
20260503043856 4 176 0.0 0.0 0.00 0.10 0.10 99 1017.9
20260503043353 4 176 0.0 0.0 0.00 0.10 0.10 99 1018.0
20260503042849 4 176 0.0 0.0 0.00 0.10 0.10 99 1018.1
20260503042346 5 176 0.0 0.0 0.00 0.10 0.10 99 1017.9
20260503041842 5 176 0.0 0.0 0.00 0.10 0.10 99 1018.1
20260503041339 5 176 0.0 0.0 0.00 0.10 0.10 99 1017.9
20260503040837 5 176 0.0 0.0 0.00 0.10 0.10 99 1017.9
20260503040334 5 176 0.0 0.0 0.00 0.10 0.10 99 1017.8
20260503035831 5 176 0.0 0.0 0.00 0.10 0.10 99 1017.8
20260503035328 5 176 0.0 0.0 0.00 0.10 0.10 99 1018.1
20260503034825 6 176 0.0 0.0 0.00 0.10 0.10 99 1017.8
20260503034323 6 176 0.0 0.0 0.00 0.10 0.10 99 1017.8
20260503033820 6 176 0.0 0.0 0.00 0.10 0.10 99 1017.9
20260503033317 6 176 0.0 0.0 0.00 0.10 0.10 99 1017.7
20260503032815 6 176 0.0 0.0 0.00 0.10 0.10 99 1018.0
20260503032314 6 176 0.0 0.0 0.00 0.10 0.10 99 1017.8
20260503031810 6 176 0.0 0.0 0.00 0.10 0.10 99 1018.0
20260503031309 6 176 0.0 0.0 0.00 0.10 0.10 99 1017.6
20260503030804 6 176 0.0 0.0 0.00 0.10 0.10 99 1017.8
20260503030301 6 176 0.0 0.0 0.00 0.10 0.10 99 1017.9
20260503025758 5 176 0.0 0.0 0.00 0.10 0.10 99 1017.8
20260503025255 5 176 0.0 0.0 0.00 0.10 0.10 99 1017.7
20260503024752 5 176 0.0 0.0 0.18 0.10 0.10 99 1017.6
20260503024249 5 176 0.0 0.0 0.18 0.10 0.10 99 1017.4
20260503023746 5 176 0.0 0.0 0.00 0.08 0.08 99 1017.7
20260503023243 5 176 0.0 0.0 0.00 0.08 0.08 99 1017.6
20260503022739 6 176 0.0 0.0 0.00 0.08 0.08 99 1017.4
20260503022234 6 176 0.0 0.0 0.00 0.08 0.08 99 1017.4
20260503021731 6 176 0.0 0.0 0.00 0.08 0.08 99 1017.8
20260503021227 6 176 0.0 0.0 0.00 0.08 0.08 99 1017.7
20260503020725 6 176 0.0 0.0 0.00 0.08 0.08 99 1017.6
20260503020222 6 176 0.0 0.0 0.00 0.08 0.08 99 1017.7
20260503015719 6 176 0.0 0.0 0.00 0.08 0.08 99 1017.7
20260503015216 6 176 0.0 0.0 0.00 0.08 0.08 99 1017.8
20260503014711 6 176 0.0 0.0 0.00 0.08 0.08 98 1017.6
20260503014210 7 176 0.0 0.0 0.00 0.08 0.08 98 1017.6
20260503013706 7 176 0.0 0.0 0.00 0.08 0.08 98 1017.5
20260503013204 7 176 0.0 0.0 0.00 0.08 0.08 98 1017.5
20260503012701 7 176 0.0 0.0 0.00 0.08 0.08 98 1017.6
20260503012158 7 176 0.0 0.0 0.00 0.08 0.08 98 1017.4
20260503011654 7 176 0.0 0.0 0.00 0.08 0.08 97 1017.5
20260503011152 7 176 0.0 0.0 0.00 0.08 0.08 97 1017.5
20260503010648 7 176 0.0 0.0 0.00 0.08 0.08 95 1017.4
20260503010145 7 175 0.0 0.0 0.00 0.08 0.08 95 1017.5
20260503005642 7 175 0.0 0.0 0.18 0.08 0.08 94 1017.4
20260503005139 8 175 0.0 0.0 0.30 0.08 0.08 93 1017.3
20260503004636 8 175 0.0 0.0 0.30 0.08 0.08 92 1017.3
20260503004134 8 175 0.0 0.0 0.18 0.03 0.03 90 1017.2
20260503003631 8 175 0.0 0.0 0.00 0.00 0.00 89 1017.2
20260503003128 8 175 1.6 1.6 0.00 0.00 0.00 86 1016.7
20260503002625 8 175 0.0 1.6 0.00 0.00 0.00 84 1016.6
20260503002121 9 175 0.0 0.0 0.00 0.00 0.00 80 1016.3
20260503001617 9 176 0.0 0.0 0.00 0.00 0.00 79 1016.0
20260503001115 9 175 0.0 0.0 0.00 0.00 0.00 79 1016.1
20260503000612 9 175 0.0 1.6 0.00 0.00 0.00 78 1015.9
20260503000109 9 175 0.0 0.0 0.00 0.00 0.00 78 1015.6
20260502235606 10 175 1.6 1.6 0.00 0.00 0.00 77 1015.6
20260502235104 10 175 1.6 1.6 0.00 0.00 0.00 76 1015.6
20260502234559 10 175 0.0 0.0 0.00 0.00 0.00 74 1015.7
20260502234057 10 175 0.0 0.0 0.00 0.00 0.00 72 1015.7
20260502233557 11 176 0.0 0.0 0.00 0.00 0.00 69 1015.6
20260502233055 11 176 0.0 0.0 0.00 0.00 0.00 66 1015.6
20260502232551 12 175 0.0 0.0 0.00 0.00 0.00 62 1015.4
20260502232048 12 175 0.0 0.0 0.00 0.00 0.00 62 1015.7